Content
SEND FEEDBACK

Daily
Averages
Monthly
Summary
Switzerland

GENEVA, SWITZERLAND


Home > Europe > Switzerland
Elevation: 1364 feet     Latitude: 46 15N     Longitude: 006 08E

WEATHER
 
SELECT A DAY
Number of Records: 313,788;   Date Range: 7/1/96 - 10/29/14
 
SHARE

PRINT THIS DATA

[ ← Previous Day ]
WEATHER ALMANAC - FEBRUARY 8, 2013
[ Next Day → ]
[ °C ]   °F
Weather ElementAverageHighLow
Temperature30.6 °F37.4 °F (1:20 pm)24.8 °F (6:20 am)
Dewpoint23.1 °F26.6 °F (12:20 am)18 °F (2:00 pm)
Humidity72.7 %93 % (1:50 am)34 % (2:00 pm)
Barometer29.96 in30.10 in (11:00 pm)29.92 in (3:20 am)
Wind Speed3.2 mph10.4 mph (3:00 pm)
Weather ElementAverage
Visibility7.7 mi
Wind DirectionESE (112.7 °)

Weather ElementTotal
Precipitation---
Heating Degree Days33.9 (Base 65)
Averaged from 66 records on February 8, 2013
WEATHER CONDITIONS BREAKOUT
WIND DIRECTION BREAKOUT
WEATHER BY HOUR - FEBRUARY 8, 2013
[ °C ]   °F
Local TimeTemperatureDewpointHumidityBarometerVisibilityWind DirectionWind SpeedGust SpeedPrecipitationEventsConditions
12:20 AM32.0 °F26.6 °F80 %29.98 in6.2 miSSW (210°)4.6 mphMostly Cloudy
12:50 AM30.2 °F26.6 °F86 %29.95 in6.2 miVariable1.2 mphSnowLight Snow Showers
1:00 AM30.0 °F26.0 °F81 %30.03 in22.0 miSW (220°)4.6 mphMostly Cloudy
1:20 AM30.2 °F26.6 °F86 %29.95 in6.2 miVariable1.2 mphScattered Clouds
1:50 AM28.4 °F26.6 °F93 %29.95 in6.2 miVariable1.2 mphScattered Clouds
2:00 AM29.0 °F26.0 °F84 %30.02 inSSE (150°)2.3 mph
2:50 AM26.6 °F24.8 °F93 %29.95 in6.2 miNorth (360°)2.3 mphMostly Cloudy
3:00 AM29.0 °F26.0 °F84 %30.01 inWest (280°)1.2 mph
3:20 AM28.4 °F26.6 °F93 %29.92 in6.2 miCalmMostly Cloudy
3:50 AM28.4 °F26.6 °F93 %29.92 in6.2 miWSW (240°)4.6 mphMostly Cloudy
4:20 AM26.6 °F24.8 °F93 %29.92 in6.2 miSW (230°)3.5 mphMostly Cloudy
4:50 AM28.4 °F24.8 °F86 %29.92 in6.2 miSW (230°)4.6 mphMostly Cloudy
5:00 AM28.0 °F24.0 °F81 %30.00 inWNW (290°)2.3 mph
5:20 AM28.4 °F24.8 °F86 %29.92 in6.2 miVariable1.2 mphMostly Cloudy
5:50 AM26.6 °F24.8 °F93 %29.92 in6.2 miWSW (250°)2.3 mphScattered Clouds
6:00 AM27.0 °F24.0 °F84 %30.00 inSSW (200°)1.2 mph
6:20 AM24.8 °F23.0 °F93 %29.92 in6.2 miVariable1.2 mphScattered Clouds
6:50 AM26.6 °F24.8 °F93 %29.92 in6.2 miVariable1.2 mphScattered Clouds
7:00 AM27.0 °F24.0 °F85 %30.00 in22.0 miSouth (180°)2.3 mphScattered Clouds
7:20 AM26.6 °F24.8 °F93 %29.92 in6.2 miVariable1.2 mphScattered Clouds
7:50 AM26.6 °F24.8 °F93 %29.92 in6.2 miWest (270°)4.6 mphScattered Clouds
8:00 AM28.0 °F24.0 °F78 %30.01 inWSW (250°)3.5 mph
8:20 AM26.6 °F24.8 °F93 %29.92 in6.2 miWest (270°)3.5 mphScattered Clouds
8:50 AM28.4 °F24.8 °F86 %29.92 in6.2 miVariable2.3 mphMostly Cloudy
9:00 AM29.0 °F24.0 °F75 %30.01 inSouth (180°)1.2 mph
9:20 AM28.4 °F24.8 °F86 %29.92 in6.2 miVariable2.3 mphMostly Cloudy
9:50 AM28.4 °F24.8 °F86 %29.92 in6.2 miVariable3.5 mphMostly Cloudy
10:20 AM32.0 °F24.8 °F75 %29.92 in6.2 miVariable2.3 mphMostly Cloudy
10:50 AM32.0 °F24.8 °F75 %29.92 in6.2 miVariable1.2 mphMostly Cloudy
11:00 AM32.0 °F24.0 °F61 %30.00 inSW (230°)1.2 mph
11:20 AM33.8 °F24.8 °F70 %29.92 in6.2 miVariable2.3 mphMostly Cloudy
11:50 AM33.8 °F23.0 °F65 %29.92 in6.2 miVariable1.2 mphMostly Cloudy
12:00 PM33.0 °F23.0 °F57 %30.00 inEast (80°)3.5 mph
12:20 PM33.8 °F24.8 °F70 %29.92 in6.2 miVariable2.3 mphMostly Cloudy
12:50 PM35.6 °F26.6 °F70 %29.92 in6.2 miVariable2.3 mphMostly Cloudy
1:00 PM34.0 °F22.0 °F50 %29.98 in28.0 miNE (50°)4.6 mphScattered Clouds
1:20 PM37.4 °F23.0 °F56 %29.92 in6.2 miNNE (30°)4.6 mphScattered Clouds
1:50 PM37.4 °F21.2 °F52 %29.92 in6.2 miENE (70°)8.1 mphScattered Clouds
2:00 PM36.0 °F18.0 °F34 %29.97 inNE (40°)8.1 mph
2:20 PM37.4 °F19.4 °F48 %29.92 in6.2 miENE (60°)8.1 mphScattered Clouds
2:50 PM37.4 °F21.2 °F52 %29.92 in6.2 miNE (40°)6.9 mphScattered Clouds
3:00 PM36.0 °F18.0 °F35 %29.97 inNE (50°)10.4 mph
3:20 PM37.4 °F19.4 °F48 %29.92 in6.2 miNE (40°)5.8 mphScattered Clouds
3:50 PM37.4 °F19.4 °F48 %29.92 in6.2 miNNE (30°)5.8 mphPartly Cloudy
4:20 PM35.6 °F21.2 °F56 %29.92 in6.2 miNNE (20°)6.9 mphPartly Cloudy
4:50 PM35.6 °F21.2 °F56 %29.92 in6.2 miNNW (330°)4.6 mphScattered Clouds
5:00 PM35.0 °F21.0 °F44 %29.99 inNNE (20°)6.9 mph
5:20 PM33.8 °F24.8 °F70 %29.92 in6.2 miNNW (340°)4.6 mphScattered Clouds
5:50 PM32.0 °F24.8 °F75 %29.95 in6.2 miVariable2.3 mphPartly Cloudy
6:00 PM32.0 °F22.0 °F57 %30.01 inNNW (340°)3.5 mph
6:20 PM30.2 °F23.0 °F75 %29.95 in6.2 miNorth (360°)3.5 mphPartly Cloudy
6:50 PM30.2 °F23.0 °F75 %29.95 in6.2 miNorth (360°)3.5 mphPartly Cloudy
7:00 PM29.0 °F22.0 °F65 %30.04 in28.0 miNorth3.5 mphScattered Clouds
7:20 PM30.2 °F23.0 °F75 %29.98 in6.2 miVariable2.3 mphScattered Clouds
7:50 PM30.2 °F21.2 °F69 %29.98 in6.2 miVariable2.3 mphPartly Cloudy
8:00 PM29.0 °F19.0 °F56 %30.06 inNorth3.5 mph
8:20 PM28.4 °F19.4 °F69 %29.98 in6.2 miNorth (350°)3.5 mphPartly Cloudy
8:50 PM28.4 °F19.4 °F69 %29.98 in6.2 miVariable1.2 mphPartly Cloudy
9:00 PM29.0 °F19.0 °F55 %30.07 inEast (80°)1.2 mph
9:20 PM28.4 °F21.2 °F74 %30.01 in6.2 miVariable1.2 mphPartly Cloudy
9:50 PM28.4 °F21.2 °F74 %30.01 in6.2 miVariable2.3 mphScattered Clouds
10:20 PM28.4 °F21.2 °F74 %30.01 in6.2 miVariable1.2 mphScattered Clouds
10:50 PM28.4 °F21.2 °F74 %30.01 in6.2 miCalmPartly Cloudy
11:00 PM27.0 °F20.0 °F66 %30.10 inWest (260°)1.2 mph
11:20 PM28.4 °F21.2 °F74 %30.01 in6.2 miSW (230°)5.8 mphPartly Cloudy
11:50 PM28.4 °F21.2 °F74 %30.01 in6.2 miSW (220°)4.6 mphMostly Cloudy
Hourly data recorded from LSGG, located miles away from Geneva, Switzerland







STORIES FROM OUR PARTNERS